Location: Landeleau
(48.2273°N, 3.7285°W)
Time: 12:52:50
(UTC+00:00)

Cosmos 1953 Rocket - Pass Details

Date: 30 March 2020
Orbit: 604 x 635 km, 82.5° (Epoch: 02 June)

Event Time Altitude Azimuth Distance (km) Brightness Sun altitude
Rises 21:23:44 0° 346° (NNW) 2,920 7.8 -25.1°
Reaches altitude 10° 21:26:00 10° 342° (NNW) 2,013 6.9 -25.4°
Maximum altitude 21:30:21 55° 265° (W) 765 4.1 -25.9°
Enters shadow 21:30:41 53° 247° (WSW) 778 4.1 -26.0°
